Weather History for Rogers, AR

Change the Weather History Date:

Thursday, June 13, 2013

  Actual Average Record
Temperature  
Mean Temperature 81 °F -  
Max Temperature 91 °F 78 °F 91 °F (1998)
Min Temperature 71 °F 60 °F 57 °F (2006)
Cooling Degree Days 16    
Growing Degree Days 31 (Base 50)    
Moisture  
Dew Point 67 °F    
Average Humidity 67    
Maximum Humidity 89    
Minimum Humidity 39    
Precipitation  
Precipitation 0.00 in - - ()
Sea Level Pressure  
Sea Level Pressure 29.99 in    
Wind  
Wind Speed 6 mph (NNW)    
Max Wind Speed 9 mph    
Max Gust Speed -    
Visibility 10 miles    
Events      
Averages and records for this station are not official NWS values.
T = Trace of Precipitation, MM = Missing Value Source: NWS Daily Summary

Daily Weather History Graph

Daily Weather History Graph

Search for Another Location

Airport:

Trip Planner

Search our weather history database for the weather conditions in past years. The results will help you decide how hot, cold, wet, or windy it might be!

Date:

Astronomy

Jun. 13, 2013 Rise Set
Actual Time 5:58 AM CDT 8:35 PM CDT
Civil Twilight 5:27 AM CDT 9:05 PM CDT
Nautical Twilight 4:49 AM CDT 9:43 PM CDT
Astronomical Twilight 4:07 AM CDT 10:25 PM CDT
Moon 10:28 AM CDT (6/13) 11:49 PM CDT (6/13)
Length of Visible Light 15h 38m
Length of Day
14h 37m
Waxing Crescent, 22% of the Moon is Illuminated
Jun 13
Waxing Crescent
Jun 16
First Quarter
Jun 23
Full
Jun 29
Last Quarter
Jul 8
New

Hourly Weather History & Observations

Time (CDT) Temp. Heat Index Dew Point Humidity Pressure Visibility Wind Dir Wind Speed Gust Speed Precip Events Conditions
12:57 AM 77.0 °F - 69.1 °F 76% 29.94 in 10.0 mi SW 6.9 mph - N/A   Clear
1:57 AM 75.9 °F - 68.0 °F 76% 29.94 in 10.0 mi WSW 4.6 mph - N/A   Clear
2:57 AM 73.9 °F - 68.0 °F 82% 29.95 in 10.0 mi SW 4.6 mph - N/A   Clear
3:57 AM 73.0 °F - 66.9 °F 81% 29.95 in 10.0 mi West 3.5 mph - N/A   Clear
4:57 AM 71.1 °F - 66.9 °F 87% 29.97 in 10.0 mi West 3.5 mph - N/A   Clear
5:57 AM 71.1 °F - 66.9 °F 87% 29.97 in 10.0 mi SSW 6.9 mph - N/A   Clear
6:57 AM 73.0 °F - 69.1 °F 87% 29.99 in 10.0 mi Calm Calm - N/A   Clear
7:25 AM 75.2 °F - 71.6 °F 89% 30.04 in 8.0 mi NW 4.6 mph - N/A   Mostly Cloudy
7:57 AM 75.0 °F - 70.0 °F 84% 30.00 in 10.0 mi NNW 4.6 mph - N/A   Overcast
8:14 AM 75.2 °F - 69.8 °F 83% 30.05 in 10.0 mi North 5.8 mph - N/A   Scattered Clouds
8:57 AM 78.1 °F - 66.0 °F 66% 30.01 in 10.0 mi NNE 9.2 mph - N/A   Clear
9:57 AM 81.0 °F 83.3 °F 66.9 °F 62% 30.01 in 10.0 mi NE 5.8 mph - N/A   Clear
10:57 AM 84.9 °F 88.2 °F 68.0 °F 57% 30.02 in 10.0 mi WNW 4.6 mph - N/A   Clear
11:57 AM 86.0 °F 89.4 °F 68.0 °F 55% 30.01 in 10.0 mi Variable 5.8 mph - N/A   Clear
12:57 PM 87.1 °F 90.6 °F 68.0 °F 53% 30.01 in 10.0 mi North 6.9 mph - N/A   Clear
1:33 PM 87.8 °F 91.4 °F 68.0 °F 52% 30.05 in 10.0 mi North 6.9 mph - N/A   Clear
1:57 PM 88.0 °F 91.4 °F 68.0 °F 51% 30.01 in 10.0 mi NW 6.9 mph - N/A   Clear
2:57 PM 89.1 °F 90.3 °F 64.0 °F 43% 29.99 in 10.0 mi NNW 4.6 mph - N/A   Clear
3:57 PM 90.0 °F 90.3 °F 62.1 °F 39% 29.97 in 10.0 mi NNW 4.6 mph - N/A   Clear
4:57 PM 91.0 °F 93.0 °F 64.9 °F 42% 29.96 in 10.0 mi NNW 4.6 mph - N/A   Clear
5:57 PM 88.0 °F 89.6 °F 64.9 °F 46% 29.96 in 10.0 mi North 8.1 mph - N/A   Clear
6:57 PM 86.0 °F 88.2 °F 66.0 °F 51% 29.96 in 10.0 mi North 4.6 mph - N/A   Clear
7:57 PM 82.0 °F 84.5 °F 66.9 °F 60% 29.96 in 10.0 mi North 5.8 mph - N/A   Clear
8:57 PM 77.0 °F - 66.9 °F 71% 29.97 in 10.0 mi NE 9.2 mph - N/A   Clear
9:57 PM 75.9 °F - 66.0 °F 71% 29.97 in 10.0 mi NE 8.1 mph - N/A   Clear
10:57 PM 75.0 °F - 66.0 °F 73% 29.98 in 10.0 mi ENE 6.9 mph - N/A   Clear
11:57 PM 73.0 °F - 64.9 °F 76% 29.99 in 10.0 mi East 5.8 mph - N/A   Clear